Location: Cosy Dell
(34.2789°N, 117.4537°W)
Time: 12:05:08
(UTC+00:00)

Spot 2 Rocket - Pass Details

Date: 14 July 2020
Orbit: 757 x 772 km, 98.6° (Epoch: 08 August)

Event Time Altitude Azimuth Distance (km) Brightness Sun altitude
Exits shadow 05:39:48 34° 224° (SW) 1,253 4.5 -25.4°
Maximum altitude 05:41:10 41° 261° (W) 1,110 4.4 -25.6°
Drops below altitude 10° 05:45:59 10° 331° (NNW) 2,319 7.0 -26.2°
Sets 05:48:26 0° 339° (NNW) 3,251 8.0 -26.4°
